Find Starlink 38289

NORAD ID: 100313 Int'l Des: 2026-184 Owner: SPXS Country: US Constellation: starlink operational

当前视图

正在加载3D地球...

About Starlink 38289

Starlink 38289 (NORAD 100313) is a starlink constellation satellite launched Aug 12, 2026 by SPXS of US. with a mass of 575.00 kg.

即将过境

Passes for default location (London). Set your location on the main map for personalized predictions.

高度历史

Loading altitude history...

两行轨道根数

1 A0313U 26184N 26262.93670344 .00009674 00000-0 30162-3 0 9993
2 A0313 97.2846 128.0565 0001393 106.0480 254.0916 15.33441044 7279
Epoch: Sep 19, 2026 • Age: 17 hours

当前状态

高度 494.7 km
远地点 / 近地点 N/A
速度 7.62 km/s
星下点 -81.05°S, 26.01°E
发射日期 Aug 12, 2026
运行时间 0.1 years
类型 internet

技术详情

分类 Payload
质量 575.00 kg
干质量 530.00 kg
长度 0.30 m
跨度 29.00 m
形状 ? Box + pan
制造商 SPXS
平台类型 Starlink V2MO
阶段状态 In Orbit
所有者/国家 SPXS/US

Most Searched